Measurements were made at the meteorological tower in Juelich (50.90 N / 6.40 E) at an altitude of 100 m
"Instrument: Fast Greenhouse Gas Analyzer (FGGA), Los Gatos Inc."
Responsible PI: Dr. Marc von Hobe; Forschungszentrum Juelich GmbH; IEK-7; email: m.von.hobe@fz-juelich.de
NaN or negative numbers are fill values (i.e. no valid measurements were made at that time)
Uncertainties are given as the 1-sigma standard deviation over each 10 minute intervals. In each interval ~600 individual measurements are carried out so that the standard error of the mean is approximately sigma/sqrt(600).
time_utc,CO2_ppm,stdev_CO2_ppm,CH4_ppm,stdev_CH4_ppm,H2O_ppm,stdev_H2O_ppm
"2017-02-01 00:05:00 000",419.533,0.941065,1.98152,0.00462441,5793.61,133.363
"2017-02-01 00:15:00 000",419.152,1.14609,1.98383,0.00480730,5865.75,150.812
"2017-02-01 00:25:00 000",417.900,1.18047,1.98829,0.00515071,5816.90,140.422
"2017-02-01 00:35:00 000",419.360,0.923590,1.98836,0.00487918,5801.99,137.074
"2017-02-01 00:45:00 000",419.057,0.956480,1.98322,0.00453567,5790.82,148.883
"2017-02-01 00:55:00 000",419.222,1.04509,1.98208,0.00497433,5782.94,160.374
"2017-02-01 01:05:00 000",418.830,0.967747,1.98526,0.00486537,5788.17,147.575
"2017-02-01 01:15:00 000",419.220,0.944762,1.98987,0.00481733,5777.51,152.730
"2017-02-01 01:25:00 000",419.342,0.871657,1.98814,0.00609037,5832.85,150.925
"2017-02-01 01:35:00 000",419.282,0.888619,1.98701,0.00551353,5805.15,154.404
"2017-02-01 01:45:00 000",419.217,0.843631,1.99307,0.00636638,5797.64,149.995
"2017-02-01 01:55:00 000",419.318,0.892308,1.99968,0.00590371,5809.60,152.085
"2017-02-01 02:05:00 000",419.576,0.956459,2.00109,0.00616308,5870.09,141.412
"2017-02-01 02:15:00 000",420.130,0.851538,2.00221,0.00616706,5834.53,150.740
"2017-02-01 02:25:00 000",420.341,0.915609,2.00540,0.00609133,5725.08,150.779
"2017-02-01 02:35:00 000",419.858,0.907599,2.00121,0.00506616,5764.47,162.059
"2017-02-01 02:45:00 000",420.425,0.945611,2.00464,0.00568503,5827.80,149.364
"2017-02-01 02:55:00 000",420.574,0.906148,2.00070,0.00660680,5750.42,154.995
"2017-02-01 03:05:00 000",419.710,0.885700,1.99709,0.00586463,5839.36,152.497
"2017-02-01 03:15:00 000",419.254,0.872401,1.99287,0.00505669,5767.99,157.906
"2017-02-01 03:25:00 000",419.223,0.882361,1.98908,0.00530430,5867.75,160.809
"2017-02-01 03:35:00 000",418.612,0.998409,1.98733,0.00498070,5782.06,158.453
"2017-02-01 03:45:00 000",418.438,0.938259,1.98314,0.00497641,5788.46,160.275
"2017-02-01 03:55:00 000",418.475,0.940732,1.98479,0.00506712,5816.89,162.657
"2017-02-01 04:05:00 000",418.166,0.937044,1.98586,0.00506677,5667.12,175.120
"2017-02-01 04:15:00 000",418.284,0.917034,1.98185,0.00469617,5678.44,154.342
"2017-02-01 04:25:00 000",418.225,0.885521,1.98212,0.00456021,5693.45,151.813
"2017-02-01 04:35:00 000",418.429,0.901469,1.98405,0.00460770,5743.60,157.741
"2017-02-01 04:45:00 000",418.671,0.916881,1.98547,0.00485904,5776.28,167.578
"2017-02-01 04:55:00 000",418.258,0.917160,1.98985,0.00491705,5717.57,158.473
"2017-02-01 05:05:00 000",418.299,0.935359,1.98882,0.00483331,5654.96,162.891
"2017-02-01 05:15:00 000",418.579,0.916617,1.99048,0.00495220,5743.39,161.126
"2017-02-01 05:25:00 000",419.216,0.989833,1.99163,0.00511558,5695.49,160.058
"2017-02-01 05:35:00 000",419.829,0.887409,1.98741,0.00483195,5662.86,161.213
"2017-02-01 05:45:00 000",419.839,0.878366,1.98753,0.00466190,5652.33,162.013
"2017-02-01 05:55:00 000",420.378,0.983922,1.98684,0.00475624,5699.00,169.141
"2017-02-01 06:05:00 000",420.737,0.935789,1.98767,0.00530342,5698.67,163.899
"2017-02-01 06:15:00 000",421.073,0.969351,1.99344,0.00498297,5603.90,172.730
"2017-02-01 06:25:00 000",420.638,0.942411,1.99316,0.00557103,5690.56,169.813
"2017-02-01 06:35:00 000",420.661,1.01718,1.99729,0.00592862,5609.77,180.536
"2017-02-01 06:45:00 000",420.811,0.911031,1.99563,0.00507994,5613.80,183.326
"2017-02-01 06:55:00 000",420.775,0.931842,1.99873,0.00539557,5574.78,185.093
"2017-02-01 07:05:00 000",419.923,1.32477,2.00068,0.00650427,5575.50,204.234
"2017-02-01 07:15:00 000",419.326,0.899839,1.99746,0.00598066,5642.46,194.649
"2017-02-01 07:25:00 000",419.835,0.902303,1.99375,0.00553181,5604.09,208.955
"2017-02-01 07:35:00 000",419.221,0.968092,1.99153,0.00632837,5665.22,198.578
"2017-02-01 07:45:00 000",419.218,1.11123,1.98968,0.00595494,5631.63,180.757
"2017-02-01 07:55:00 000",417.712,0.922197,1.98660,0.00587612,5701.64,183.656
"2017-02-01 08:05:00 000",417.906,0.990149,1.98881,0.00572809,5643.39,193.453
"2017-02-01 08:15:00 000",419.476,1.03842,1.98682,0.00567926,5648.17,189.535
"2017-02-01 08:25:00 000",420.057,0.978210,1.99432,0.00600830,5665.16,179.023
"2017-02-01 08:35:00 000",418.707,1.28160,1.99391,0.00593806,5673.75,168.011
"2017-02-01 08:45:00 000",419.989,0.942882,1.99523,0.00545714,5628.09,158.391
"2017-02-01 08:55:00 000",419.423,1.12563,1.99181,0.00639631,5654.55,154.486
"2017-02-01 09:05:00 000",419.105,1.02115,1.98408,0.00662907,5680.21,157.573
"2017-02-01 09:15:00 000",418.950,1.13794,1.98209,0.00591650,5699.92,152.039
"2017-02-01 09:25:00 000",417.800,1.35194,1.97715,0.00587952,5682.99,150.098
"2017-02-01 09:35:00 000",418.732,1.06338,1.97275,0.00554219,5730.47,140.103
"2017-02-01 09:45:00 000",417.350,1.64260,1.97136,0.00530044,5759.24,140.594
"2017-02-01 09:55:00 000",416.688,1.08245,1.97265,0.00519408,5800.48,138.652
"2017-02-01 10:05:00 000",417.299,1.27019,1.97507,0.00576518,5813.54,136.677
"2017-02-01 10:15:00 000",416.686,1.13078,1.97886,0.00579042,5815.69,148.817
"2017-02-01 10:25:00 000",417.335,1.23293,1.98095,0.00567705,5885.84,134.085
"2017-02-01 10:35:00 000",416.982,0.981635,1.98004,0.00523986,5904.21,117.286
"2017-02-01 10:45:00 000",416.910,1.15554,1.97575,0.00727438,5910.22,136.175
"2017-02-01 10:55:00 000",416.191,1.25612,1.97030,0.00601472,5923.09,145.801
"2017-02-01 11:05:00 000",416.589,1.19707,1.97232,0.00493499,5970.01,138.764
"2017-02-01 11:15:00 000",420.141,1.84802,1.97740,0.00520326,5825.80,130.303
"2017-02-01 11:25:00 000",422.104,0.950424,1.98205,0.00506265,5842.76,117.299
"2017-02-01 11:35:00 000",422.567,0.975495,1.98201,0.00552078,5809.12,120.383
"2017-02-01 11:45:00 000",423.242,0.907403,1.98162,0.00519941,5830.07,119.704
"2017-02-01 11:55:00 000",423.229,0.944366,1.98482,0.00474806,5792.06,113.201
"2017-02-01 12:05:00 000",422.918,0.967185,1.98584,0.00510775,5894.92,121.291
"2017-02-01 12:15:00 000",423.166,0.955365,1.98387,0.00455535,5866.40,120.933
"2017-02-01 12:25:00 000",422.058,1.04361,1.98245,0.00489078,5888.32,129.945
"2017-02-01 12:35:00 000",421.679,1.10252,1.97975,0.00464183,5878.05,128.210
"2017-02-01 12:45:00 000",421.515,1.12983,1.98073,0.00456042,5966.24,130.148
"2017-02-01 12:55:00 000",421.720,0.984282,1.98003,0.00525500,5936.77,125.259
"2017-02-01 13:05:00 000",421.560,0.933845,1.97875,0.00468422,5967.37,127.139
"2017-02-01 13:15:00 000",421.485,0.978605,1.97721,0.00457664,6036.03,125.994
"2017-02-01 13:25:00 000",421.491,0.965379,1.97777,0.00416672,6027.54,124.399
"2017-02-01 13:35:00 000",420.100,1.04776,1.97708,0.00466888,6102.46,122.544
"2017-02-01 13:45:00 000",420.420,0.944583,1.97941,0.00474188,6116.00,132.897
"2017-02-01 13:55:00 000",420.082,0.960276,1.98128,0.00462618,6121.44,130.427
"2017-02-01 14:05:00 000",420.304,0.972468,1.98377,0.00450232,6191.25,129.706
"2017-02-01 14:15:00 000",419.386,1.00721,1.98765,0.00465355,6237.77,127.768
"2017-02-01 14:25:00 000",420.506,0.958432,1.98467,0.00454544,6218.11,136.339
"2017-02-01 14:35:00 000",420.182,0.871425,1.98668,0.00459783,6246.24,129.662
"2017-02-01 14:45:00 000",420.494,0.994203,1.98600,0.00490797,6270.23,127.670
"2017-02-01 14:55:00 000",420.373,0.893061,1.98567,0.00470483,6256.76,142.551
"2017-02-01 15:05:00 000",420.333,0.936555,1.98565,0.00475352,6248.74,137.077
"2017-02-01 15:15:00 000",419.385,1.01883,1.98787,0.00454256,6303.74,138.418
"2017-02-01 15:25:00 000",419.799,1.10439,1.98728,0.00451574,6393.75,141.194
"2017-02-01 15:35:00 000",419.824,0.928664,1.98844,0.00458904,6418.60,140.816
"2017-02-01 15:45:00 000",419.159,0.929198,1.98655,0.00508482,6380.48,127.758
"2017-02-01 15:55:00 000",419.096,0.959958,1.98568,0.00425422,6554.77,126.352
"2017-02-01 16:05:00 000",419.172,0.957930,1.98424,0.00450941,6441.89,120.168
"2017-02-01 16:15:00 000",419.643,0.883765,1.98627,0.00417015,6440.34,122.549
"2017-02-01 16:25:00 000",419.695,0.894504,1.98568,0.00444725,6436.27,118.224
"2017-02-01 16:35:00 000",419.818,0.919860,1.98278,0.00430404,6501.29,133.031
"2017-02-01 16:45:00 000",419.622,0.873192,1.98449,0.00474696,6605.15,131.048
"2017-02-01 16:55:00 000",419.186,0.938186,1.98392,0.00480052,6494.26,116.702
"2017-02-01 17:05:00 000",419.412,0.930984,1.98193,0.00433631,6605.70,123.551
"2017-02-01 17:15:00 000",419.452,0.904252,1.98249,0.00428800,6604.92,123.271
"2017-02-01 17:25:00 000",419.825,0.876380,1.98348,0.00440173,6533.40,125.636
"2017-02-01 17:35:00 000",419.835,0.937729,1.98439,0.00440164,6521.67,117.498
"2017-02-01 17:45:00 000",420.039,0.924540,1.98544,0.00463689,6562.73,119.530
"2017-02-01 17:55:00 000",420.459,0.880311,1.98820,0.00432250,6567.74,117.165
"2017-02-01 18:05:00 000",420.649,0.886585,1.98761,0.00460355,6566.62,125.914
"2017-02-01 18:15:00 000",420.937,0.948066,1.98817,0.00467050,6571.02,119.411
"2017-02-01 18:25:00 000",421.012,0.932677,1.98706,0.00452377,6586.54,119.913
"2017-02-01 18:35:00 000",420.790,0.900411,1.98517,0.00438943,6634.55,125.408
"2017-02-01 18:45:00 000",420.934,0.879189,1.98464,0.00445935,6672.37,118.415
"2017-02-01 18:55:00 000",420.827,0.945367,1.98386,0.00447549,6718.16,129.655
"2017-02-01 19:05:00 000",420.975,0.913248,1.98416,0.00462668,6766.14,122.607
"2017-02-01 19:15:00 000",421.016,0.879172,1.98601,0.00453966,6808.12,128.516
"2017-02-01 19:25:00 000",421.456,0.919233,1.99117,0.00546285,6750.17,116.510
"2017-02-01 19:35:00 000",421.773,0.897021,1.99266,0.00608410,6906.66,138.251
"2017-02-01 19:45:00 000",422.177,0.967261,1.98917,0.00527772,6948.98,139.109
"2017-02-01 19:55:00 000",422.924,0.964480,1.99031,0.00583022,7064.37,145.749
"2017-02-01 20:05:00 000",423.297,0.981150,1.98969,0.00558648,7120.67,139.858
"2017-02-01 20:15:00 000",422.109,1.24978,1.99131,0.00510537,7089.58,135.564
"2017-02-01 20:25:00 000",422.839,1.25579,1.99033,0.00445274,7085.54,137.950
"2017-02-01 20:35:00 000",422.378,1.14205,1.99027,0.00486461,7069.66,157.252
"2017-02-01 20:45:00 000",422.623,1.05448,1.99055,0.00439475,7080.03,171.312
"2017-02-01 20:55:00 000",421.421,1.04608,1.98917,0.00503477,7296.83,144.710
"2017-02-01 21:05:00 000",420.640,1.03816,1.98584,0.00517504,7367.24,146.236
"2017-02-01 21:15:00 000",422.015,1.12378,1.98269,0.00468967,7343.80,150.910
"2017-02-01 21:25:00 000",422.584,1.18515,1.98038,0.00500653,7269.40,160.233
"2017-02-01 21:35:00 000",422.398,1.21319,1.98138,0.00489971,7303.77,148.670
"2017-02-01 21:45:00 000",420.502,0.998184,1.97916,0.00452186,7437.04,147.218
"2017-02-01 21:55:00 000",421.902,1.13222,1.97731,0.00494590,7304.99,149.567
"2017-02-01 22:05:00 000",422.254,0.991592,1.97595,0.00488032,7329.54,160.107
"2017-02-01 22:15:00 000",422.251,0.979894,1.98074,0.00541242,7211.39,150.078
"2017-02-01 22:25:00 000",421.136,1.25725,1.98129,0.00572234,7305.08,151.382
"2017-02-01 22:35:00 000",419.833,1.01050,1.98207,0.00485428,7466.85,149.719
"2017-02-01 22:45:00 000",420.069,1.03427,1.97879,0.00478202,7639.30,127.475
"2017-02-01 22:55:00 000",420.893,0.959813,1.97859,0.00561475,7555.05,137.410
"2017-02-01 23:05:00 000",421.378,1.04204,1.97628,0.00618402,7503.28,150.466
"2017-02-01 23:15:00 000",420.889,1.01509,1.97897,0.00474675,7692.52,139.186
"2017-02-01 23:25:00 000",420.623,1.00090,1.98055,0.00502230,7663.55,143.262
"2017-02-01 23:35:00 000",421.921,0.998014,1.98228,0.00487816,7770.25,141.639
"2017-02-01 23:45:00 000",421.475,1.29476,1.98490,0.00526202,7900.00,153.885
"2017-02-01 23:55:00 000",420.494,1.02724,1.98702,0.00505276,7990.07,147.931
"2017-02-02 00:05:00 000",419.710,1.34061,1.97560,0.00647762,8270.49,206.786
"2017-02-02 00:15:00 000",418.567,1.03219,1.98000,0.00549999,8363.71,152.736
"2017-02-02 00:25:00 000",418.333,1.27052,1.97966,0.00545208,8413.94,154.074
"2017-02-02 00:35:00 000",420.468,1.79687,1.97273,0.00692687,8600.09,167.161
"2017-02-02 00:45:00 000",421.361,1.36126,1.96846,0.00694883,8696.90,173.179
"2017-02-02 00:55:00 000",419.659,2.07171,1.97184,0.00607350,8507.33,195.265
"2017-02-02 01:05:00 000",418.644,1.22365,1.98183,0.00821686,8116.14,158.819
"2017-02-02 01:15:00 000",417.714,1.28444,1.98130,0.00537282,8117.22,150.061
"2017-02-02 01:25:00 000",416.792,1.15741,1.98010,0.00766250,8083.25,168.047
"2017-02-02 01:35:00 000",417.671,1.34835,1.98695,0.00699672,7918.19,202.943
"2017-02-02 01:45:00 000",417.922,1.31609,1.98554,0.00462660,7895.26,149.981
"2017-02-02 01:55:00 000",417.785,1.51225,1.98469,0.00573870,7874.08,161.380
"2017-02-02 02:05:00 000",419.840,1.09893,1.99337,0.00689818,7721.30,179.228
"2017-02-02 02:15:00 000",421.662,0.918427,2.00201,0.00587136,7463.86,152.078
"2017-02-02 02:25:00 000",421.884,0.963743,1.99835,0.00658920,7414.27,157.714
"2017-02-02 02:35:00 000",420.646,1.10680,1.99293,0.00642505,7569.06,194.965
"2017-02-02 02:45:00 000",419.970,1.45991,1.98862,0.00594608,7822.51,176.006
"2017-02-02 02:55:00 000",419.061,1.59379,1.98823,0.00647519,8018.42,167.373
"2017-02-02 03:05:00 000",420.071,1.08058,1.99490,0.00551005,7726.46,172.715
"2017-02-02 03:15:00 000",421.085,1.05710,2.01048,0.00756834,7565.39,187.467
"2017-02-02 03:25:00 000",420.945,1.21155,2.01218,0.00734384,7402.25,157.564
"2017-02-02 03:35:00 000",420.776,1.17936,2.00030,0.00849983,7377.57,166.265
"2017-02-02 03:45:00 000",419.750,1.29625,1.99367,0.00965817,7573.30,205.528
"2017-02-02 03:55:00 000",417.752,1.11218,1.98893,0.00655570,8020.77,150.070
"2017-02-02 04:05:00 000",417.968,1.15898,1.99359,0.00723766,7810.91,190.714
"2017-02-02 04:15:00 000",418.104,1.03938,1.99614,0.00600687,7683.69,166.909
"2017-02-02 04:25:00 000",416.978,1.21194,1.99216,0.00609442,7838.46,213.903
"2017-02-02 04:35:00 000",416.924,1.06050,1.98564,0.00634742,7889.08,150.951
"2017-02-02 04:45:00 000",415.787,1.90897,1.97504,0.00964078,7879.10,165.231
"2017-02-02 04:55:00 000",416.518,1.93375,1.98524,0.0120581,7645.15,199.233
"2017-02-02 05:05:00 000",417.894,1.36729,1.98871,0.00900141,7585.51,159.224
"2017-02-02 05:15:00 000",416.860,0.934679,1.98339,0.00585093,7723.33,153.151
"2017-02-02 05:25:00 000",416.837,0.926948,1.97799,0.00475276,7822.37,152.375
"2017-02-02 05:35:00 000",417.107,1.15693,1.97923,0.00611943,7808.59,156.093
"2017-02-02 05:45:00 000",418.235,0.897606,1.98287,0.00544487,7719.41,148.689
"2017-02-02 05:55:00 000",418.610,0.970502,1.98504,0.00556899,7729.98,163.740
"2017-02-02 06:05:00 000",418.971,0.958869,1.98049,0.00600414,7947.68,147.470
"2017-02-02 06:15:00 000",421.041,1.35912,1.99447,0.0123668,7954.71,153.941
"2017-02-02 06:25:00 000",420.741,1.16967,1.99532,0.0141388,8011.21,170.528
"2017-02-02 06:35:00 000",420.245,1.04058,1.98024,0.00546564,7906.51,162.016
"2017-02-02 06:45:00 000",419.269,0.996105,1.98611,0.00543365,7668.27,145.108
"2017-02-02 06:55:00 000",418.495,1.12056,1.97814,0.00598308,7920.14,220.834
"2017-02-02 07:05:00 000",418.760,0.912984,1.97949,0.00553030,7899.62,208.356
"2017-02-02 07:15:00 000",419.018,0.947534,1.98369,0.00446485,7825.03,176.506
"2017-02-02 07:25:00 000",419.330,0.919528,1.98479,0.00441311,7939.81,142.780
"2017-02-02 07:35:00 000",418.926,0.963838,1.98576,0.00475012,7871.93,152.711
"2017-02-02 07:45:00 000",420.303,1.08930,1.99368,0.00518735,7789.64,151.580
"2017-02-02 07:55:00 000",420.290,0.967793,1.99500,0.00529644,7894.25,158.628
"2017-02-02 08:05:00 000",421.855,1.40116,1.99729,0.00653798,7800.59,158.237
"2017-02-02 08:15:00 000",419.594,1.49346,1.98549,0.00620163,7955.49,147.927
"2017-02-02 08:25:00 000",418.937,1.56455,1.98716,0.00706007,7942.98,167.923
"2017-02-02 08:35:00 000",419.472,1.14169,1.99897,0.00604881,7853.23,168.963
"2017-02-02 08:45:00 000",418.444,1.08840,2.00001,0.00651524,8050.90,155.634
"2017-02-02 08:55:00 000",419.277,1.17229,2.00086,0.00564392,8048.76,161.714
"2017-02-02 09:05:00 000",420.294,1.45555,1.99986,0.00584156,7831.11,156.848
"2017-02-02 09:15:00 000",420.707,1.21698,1.99843,0.00470915,7741.58,155.218
"2017-02-02 09:25:00 000",421.957,1.02358,1.99994,0.00486879,7698.78,144.816
"2017-02-02 09:35:00 000",420.981,1.08187,2.00183,0.00481889,7706.73,158.906
"2017-02-02 09:45:00 000",420.490,1.08235,1.99986,0.00500117,7853.65,178.087
"2017-02-02 09:55:00 000",420.024,1.13277,1.99474,0.00511987,7983.30,152.434
"2017-02-02 10:05:00 000",418.940,1.23363,1.99033,0.00533087,8019.83,155.624
"2017-02-02 10:15:00 000",418.763,1.18120,1.98749,0.00565970,7724.16,124.438
"2017-02-02 10:25:00 000",417.687,1.32330,1.98478,0.00492663,8009.55,186.295
"2017-02-02 10:35:00 000",417.115,1.00867,1.98860,0.00477608,8110.81,128.108
"2017-02-02 10:45:00 000",417.351,1.15919,1.98617,0.00622697,8010.31,116.045
"2017-02-02 10:55:00 000",416.529,1.17225,1.98708,0.00558447,8055.25,116.100
"2017-02-02 11:05:00 000",415.912,1.23857,1.98233,0.00653721,8247.53,147.402
"2017-02-02 11:15:00 000",417.734,1.16151,1.98606,0.00553066,8218.05,117.536
"2017-02-02 11:25:00 000",418.474,1.01694,1.99327,0.00494383,8199.33,104.529
"2017-02-02 11:35:00 000",417.969,1.08546,1.99488,0.00490443,8236.78,105.495
"2017-02-02 11:45:00 000",417.296,1.05334,1.99100,0.00749488,8150.54,134.567
"2017-02-02 11:55:00 000",416.803,0.954107,1.99148,0.00634535,8105.98,105.857
"2017-02-02 12:05:00 000",416.931,1.12848,1.99258,0.00680165,8128.64,106.546
"2017-02-02 12:15:00 000",417.689,1.38560,1.99623,0.00801279,8043.90,110.441
"2017-02-02 12:25:00 000",418.689,1.05748,1.99684,0.00656034,8034.77,97.4532
"2017-02-02 12:35:00 000",419.985,0.858887,1.99405,0.00475398,8020.60,101.349
"2017-02-02 12:45:00 000",419.189,0.988294,1.99339,0.00515641,8015.89,107.356
"2017-02-02 12:55:00 000",419.045,0.994767,1.99548,0.00490878,8048.68,116.713
"2017-02-02 13:05:00 000",419.337,0.921100,1.99825,0.00600273,8121.06,92.2760
"2017-02-02 13:15:00 000",418.738,1.04287,2.00520,0.00696500,8143.08,92.9058
"2017-02-02 13:25:00 000",417.579,1.27871,2.00106,0.00915418,8183.20,94.7961
"2017-02-02 13:35:00 000",418.030,1.30703,2.01322,0.0115783,8126.82,98.9293
"2017-02-02 13:45:00 000",419.219,1.17820,2.01981,0.0118409,8051.52,92.2521
"2017-02-02 13:55:00 000",418.226,1.19707,2.00880,0.0104043,7936.09,98.3312
"2017-02-02 14:05:00 000",418.872,1.03299,1.99836,0.00761757,7967.38,95.2893
"2017-02-02 14:15:00 000",419.366,1.15697,1.99892,0.00732407,8022.22,106.140
"2017-02-02 14:25:00 000",419.087,1.62774,1.99427,0.0109344,8023.31,105.883
"2017-02-02 14:35:00 000",418.350,1.23609,1.99842,0.00879933,7969.15,93.9464
"2017-02-02 14:45:00 000",417.086,1.49846,1.99140,0.0102160,7973.85,112.931
"2017-02-02 14:55:00 000",416.846,1.39148,1.98759,0.00785297,8027.74,99.7500
"2017-02-02 15:05:00 000",417.273,1.12724,1.98857,0.00563958,8029.74,108.672
"2017-02-02 15:15:00 000",416.643,1.16191,1.99000,0.00586502,8100.04,87.6158
"2017-02-02 15:25:00 000",416.044,1.11020,1.98845,0.00622630,8110.62,83.2346
"2017-02-02 15:35:00 000",416.950,1.10106,1.99270,0.00568310,8076.18,98.8124
"2017-02-02 15:45:00 000",414.153,1.67938,1.97730,0.0134312,8162.17,126.197
"2017-02-02 15:55:00 000",413.157,1.03619,1.96651,0.00696480,8062.98,105.768
"2017-02-02 16:05:00 000",412.777,1.04574,1.95727,0.00598983,8039.57,107.437
"2017-02-02 16:15:00 000",414.373,1.37853,1.96807,0.00933234,7943.47,109.706
"2017-02-02 16:25:00 000",412.490,1.00336,1.95411,0.00553092,7979.19,104.568
"2017-02-02 16:35:00 000",411.538,1.06538,1.95461,0.00585766,7773.66,97.5107
"2017-02-02 16:45:00 000",411.467,0.887771,1.95660,0.00604928,7811.17,105.931
"2017-02-02 16:55:00 000",411.955,0.956616,1.96244,0.00772701,7756.34,124.254
"2017-02-02 17:05:00 000",412.028,1.06904,1.96361,0.00714011,7800.38,99.4259
"2017-02-02 17:15:00 000",412.739,1.10766,1.97127,0.0108564,7695.32,142.455
"2017-02-02 17:25:00 000",412.883,1.06486,1.98279,0.00753595,7839.82,121.835
"2017-02-02 17:35:00 000",412.921,0.959984,1.98417,0.00765125,7906.47,93.4353
"2017-02-02 17:45:00 000",412.719,1.07311,1.97763,0.00631076,7940.69,91.2788
"2017-02-02 17:55:00 000",413.742,0.897994,1.98598,0.00665798,7745.36,107.274
"2017-02-02 18:05:00 000",413.626,1.11828,1.97878,0.00833005,7794.38,104.223
"2017-02-02 18:15:00 000",412.814,1.44720,1.96332,0.00629884,7789.93,107.295
"2017-02-02 18:25:00 000",412.256,1.84717,1.96148,0.00918570,7627.39,178.354
"2017-02-02 18:35:00 000",414.421,1.41258,1.97151,0.00656780,7527.05,116.952
"2017-02-02 18:45:00 000",413.436,1.59485,1.96587,0.00679470,7578.01,105.820
"2017-02-02 18:55:00 000",413.511,1.38987,1.96430,0.00724725,7602.93,92.2418
"2017-02-02 19:05:00 000",415.268,1.64131,1.96816,0.00759913,7463.19,111.776
"2017-02-02 19:15:00 000",415.973,1.15827,1.96869,0.00664597,7583.13,118.130
"2017-02-02 19:25:00 000",414.396,1.04407,1.96093,0.00555964,7519.70,90.4681
"2017-02-02 19:35:00 000",414.659,0.925081,1.95765,0.00465450,7504.72,93.6568
"2017-02-02 19:45:00 000",414.698,0.914770,1.95845,0.00466144,7496.45,100.381
"2017-02-02 19:55:00 000",416.582,1.22058,1.96353,0.00457779,7482.81,91.0716
"2017-02-02 20:05:00 000",416.913,0.922766,1.96716,0.00412240,7511.78,92.9774
"2017-02-02 20:15:00 000",417.251,1.20035,1.96807,0.00490042,7447.72,92.8489
"2017-02-02 20:25:00 000",415.935,1.99098,1.96567,0.00808800,7517.70,107.011
"2017-02-02 20:35:00 000",413.952,1.62192,1.96000,0.00703688,7555.82,122.519
"2017-02-02 20:45:00 000",413.761,1.85121,1.95676,0.00751344,7570.60,142.281
"2017-02-02 20:55:00 000",415.338,1.30465,1.96485,0.00604380,7383.10,94.4978
"2017-02-02 21:05:00 000",414.911,1.81424,1.96371,0.00733681,7436.79,113.838
"2017-02-02 21:15:00 000",414.274,1.17813,1.96529,0.00540077,7384.79,101.421
"2017-02-02 21:25:00 000",413.869,1.01118,1.96120,0.00500054,7401.52,105.625
"2017-02-02 21:35:00 000",412.931,1.27964,1.95639,0.00457447,7527.15,93.4839
"2017-02-02 21:45:00 000",412.935,0.990688,1.95875,0.00433506,7527.59,87.4010
"2017-02-02 21:55:00 000",413.890,1.06553,1.96449,0.00571497,7420.19,99.0424
"2017-02-02 22:05:00 000",414.011,1.33715,1.96848,0.00650820,7427.88,115.328
"2017-02-02 22:15:00 000",411.969,1.14246,1.96222,0.00508593,7535.40,92.0417
"2017-02-02 22:25:00 000",412.011,1.14097,1.96234,0.00577089,7432.53,107.573
"2017-02-02 22:35:00 000",410.437,1.75180,1.95531,0.00954837,7518.43,115.533
"2017-02-02 22:45:00 000",410.351,1.72592,1.95610,0.00896652,7345.76,141.996
"2017-02-02 22:55:00 000",413.209,1.67661,1.96358,0.00677044,7311.93,114.911
"2017-02-02 23:05:00 000",414.994,1.83829,1.97024,0.00836833,7254.48,132.864
"2017-02-02 23:15:00 000",413.888,2.20429,1.96345,0.0110211,7372.58,125.311
"2017-02-02 23:25:00 000",412.967,1.48398,1.96093,0.00754531,7261.31,110.084
"2017-02-02 23:35:00 000",412.533,1.74173,1.95714,0.00949283,7285.96,104.248
"2017-02-02 23:45:00 000",412.507,1.61496,1.95462,0.00751937,7250.81,120.814
"2017-02-02 23:55:00 000",411.811,1.36515,1.95033,0.00715167,7291.71,122.728
"2017-02-03 00:05:00 000",412.021,1.08646,1.95145,0.00684919,7258.13,147.956
"2017-02-03 00:15:00 000",412.303,1.02122,1.95520,0.00531702,7222.94,125.739
"2017-02-03 00:25:00 000",412.198,0.987898,1.95603,0.00436309,7203.98,99.5552
"2017-02-03 00:35:00 000",411.658,1.13290,1.95443,0.00607845,7258.90,171.680
"2017-02-03 00:45:00 000",411.534,1.03537,1.95556,0.00482875,7210.39,143.279
"2017-02-03 00:55:00 000",411.893,0.960307,1.95789,0.00473677,7337.94,222.814
"2017-02-03 01:05:00 000",410.962,2.09778,1.95439,0.00875698,7689.87,106.570
"2017-02-03 01:15:00 000",411.021,1.27064,1.95672,0.00609355,7674.51,118.653
"2017-02-03 01:25:00 000",412.819,1.08315,1.96340,0.00430105,7637.24,129.106
"2017-02-03 01:35:00 000",410.327,1.54803,1.95822,0.00647074,7800.22,98.8711
"2017-02-03 01:45:00 000",407.819,2.06495,1.94815,0.0113532,8042.62,134.507
"2017-02-03 01:55:00 000",407.858,1.57105,1.94688,0.00950341,8248.81,144.560
"2017-02-03 02:05:00 000",406.618,1.12867,1.93995,0.00517940,8417.09,108.363